[[{"header":{"parameterUnit":"m.s-1","parameterCategory":1,"la1":30.2991,"la2":30.254,"lo1":-89.0895,"lo2":-89.0444,"dy":0.0017,"dx":0.0017,"nx":28,"ny":28,"refTime":"2024-07-12T03:00:00:Z","depth":0,"parameterNumber":2,"parameterNumberName":"U-component_of_WINDS"},"data":[0,0,0,0,0,0,0,0,0,0,0,0,0,0,0,0,0,0,0,0,0,0,0,0,0,0,0,0,0,0,0,0,0,0,0,0,0,0,0,0,0,0,0,0,0,0,0,0,0,0,0,0,0,0,0,0,0,0,1.6774,1.6776,0,1.6945,1.6946,1.6948,1.7006,1.7005,1.7005,1.7004,1.718,1.7185,1.719,0,0,0,0,0,0,0,0,0,0,0,0,0,1.6498,1.6502,1.6774,1.6776,1.6778,1.6944,1.6947,1.6949,1.7006,1.7005,1.7005,1.7004,1.7178,1.7184,1.7191,0,0,0,0,0,0,0,0,0,0,0,0,0,1.6638,1.6504,1.6773,1.6827,1.6833,1.6944,1.6947,1.695,1.7006,1.7005,1.7004,1.7003,1.7176,1.7184,1.7192,1.7262,0,0,1.7216,1.722,0,0,0,0,0,0,0,0,1.663,1.6648,1.6817,1.6823,1.6831,1.6953,1.6914,1.7054,1.7007,1.6941,1.7004,1.7003,1.7105,1.7119,1.7153,1.727,1.7278,1.7217,1.7222,1.7225,1.7227,0,0,0,0,0,0,0,1.662,1.6641,1.6841,1.6819,1.6828,1.6842,1.6861,1.6941,1.7027,1.6946,1.6951,1.697,1.7109,1.7146,1.7158,1.728,1.7217,1.7224,1.7229,1.7232,1.7463,1.7464,0,0,0,0,0,0,1.6601,1.6632,1.6836,1.6846,1.6726,1.6848,1.6869,1.6915,1.7026,1.7042,1.6971,1.6972,1.7132,1.7149,1.7164,1.7253,1.7225,1.7233,1.7237,1.7461,1.7463,1.7464,0,0,0,0,0,0,1.6595,1.6619,1.6829,1.6741,1.6769,1.6854,1.6905,1.6919,1.6955,1.7045,1.706,1.6993,1.7132,1.7153,1.7237,1.726,1.7236,1.7243,1.746,1.7462,1.7464,1.7432,0,0,0,0,0,0,1.6587,1.6616,1.6644,1.6741,1.6773,1.6899,1.6906,1.6923,1.6969,1.6972,1.7069,1.7084,1.7133,1.7225,1.7245,1.7271,1.725,1.7458,1.7461,1.7463,1.7431,1.7432,1.7434,0,0,0,0,0,1.6577,1.6628,1.6645,1.6669,1.6809,1.69,1.6918,1.6973,1.697,1.6999,1.7056,1.7081,1.7254,1.7233,1.7256,1.7285,1.7457,1.746,1.7463,1.7431,1.7432,1.7434,0,0,0,0,0,0,1.6532,1.6642,1.6662,1.6746,1.6813,1.6909,1.6947,1.6973,1.7042,1.7043,1.7108,1.713,1.7208,1.7255,1.7229,1.7358,1.7357,1.7365,1.7324,1.7327,1.7328,1.7315,1.7256,0,0,0,0,0,1.6532,1.6596,1.6689,1.6755,1.6787,1.6861,1.6903,1.6939,1.7011,1.704,1.7103,1.7173,1.7243,1.7287,1.7357,1.7438,1.746,1.7469,1.7471,1.7471,1.7477,1.7523,1.7528,1.7474,1.7474,1.7474,0,0,1.6533,1.6601,1.6637,1.6747,1.6804,1.6868,1.6885,1.6953,1.7002,1.705,1.7133,1.7182,1.7264,1.7346,1.7386,1.7388,1.7497,1.7475,1.7475,1.7481,1.7526,1.7531,1.7536,1.7476,1.7476,1.7476,0,0,1.6567,1.6625,1.6686,1.6741,1.6826,1.6875,1.6889,1.6982,1.7016,1.71,1.7137,1.7197,1.7316,1.7372,1.7417,1.7471,1.7497,1.7492,1.7498,1.7542,1.7546,1.755,1.7569,1.7575,1.7498,1.7498,1.7498,0,1.6557,1.6656,1.6713,1.678,1.6827,1.6873,1.6935,1.6987,1.709,1.7121,1.7121,1.7272,1.733,1.7426,1.7439,1.7474,1.7492,1.7481,1.7541,1.7546,1.755,1.7569,1.7576,1.7497,1.7497,1.7497,1.7497,0,1.6639,1.6707,1.6746,1.6844,1.6896,1.6959,1.7026,1.7071,1.7103,1.7151,1.7236,1.7308,1.7392,1.7418,1.745,1.7518,1.7517,1.7528,1.7528,1.7553,1.7572,1.758,1.7495,1.7495,1.7496,1.7496,0,0,1.6649,1.6778,1.6791,1.6836,1.6933,1.6987,1.7052,1.7134,1.7171,1.7241,1.7297,1.7397,1.7408,1.7458,1.7497,1.7535,1.7573,1.7543,1.7545,1.7545,1.7652,1.7642,1.7649,1.759,1.7592,1.7593,1.7645,0,1.6695,1.6814,1.6868,1.6963,1.7026,1.7071,1.7128,1.7193,1.724,1.7301,1.7353,1.7423,1.7433,1.7463,1.7503,1.756,1.7595,1.7557,1.7643,1.7646,1.7621,1.7659,1.7649,1.7694,1.7653,1.7654,1.7655,0,1.6765,1.6834,1.6935,1.7024,1.7052,1.7102,1.7182,1.7239,1.7314,1.7346,1.7401,1.7438,1.7508,1.7504,1.7601,1.7574,1.7612,1.7645,1.7649,1.7658,1.7651,1.7669,1.771,1.7717,1.7667,1.7666,1.7665,0,1.6761,1.688,1.6955,1.6992,1.7098,1.7132,1.7177,1.7251,1.7297,1.7366,1.7397,1.7473,1.7515,1.7573,1.763,1.7621,1.7722,1.7722,1.775,1.7748,1.7769,1.7766,1.7815,1.7794,1.7794,1.7794,1.7794,0,1.6807,1.6867,1.6955,1.7001,1.707,1.713,1.7196,1.7245,1.731,1.7367,1.7411,1.7463,1.7535,1.7596,1.7641,1.7714,1.7733,1.776,1.7771,1.7756,1.7752,1.7782,1.778,1.7796,1.7795,1.7795,1.7795,0,1.6814,1.6876,1.6961,1.7054,1.7079,1.7125,1.7204,1.7251,1.7299,1.737,1.739,1.7467,1.7542,1.7604,1.7701,1.7732,1.7808,1.7821,1.7782,1.7788,1.7812,1.7808,1.7881,1.7893,1.7863,1.7864,1.7864,0,1.6839,1.6886,1.6983,1.7024,1.7069,1.7135,1.7181,1.7243,1.729,1.7378,1.7414,1.7491,1.7556,1.7672,1.7737,1.7812,1.7827,1.7847,1.7838,1.7821,1.7826,1.7823,1.7827,1.7847,1.7848,1.7848,1.7848,0,1.6876,1.6904,1.6969,1.7046,1.71,1.7163,1.7228,1.7258,1.7332,1.7382,1.7458,1.7509,1.7608,1.7684,1.7765,1.7812,1.7842,1.785,1.786,1.7845,1.782,1.7833,1.7783,1.7848,1.7848,1.7848,1.7848,1.7848,1.6892,1.6936,1.7011,1.7083,1.7137,1.7196,1.7244,1.7299,1.7364,1.7449,1.7482,1.7559,1.7632,1.7745,1.7792,1.7854,1.7858,1.7872,1.7876,1.7879,1.7876,1.781,1.7869,1.7869,1.7869,1.7869,1.7869,0,1.6931,1.6981,1.7047,1.7135,1.7191,1.7214,1.7286,1.7331,1.7399,1.7465,1.7528,1.7615,1.7688,1.7759,1.7836,1.7871,1.7887,1.789,1.7887,1.7897,1.7869,1.7852,1.7876,1.7876,1.7876,1.7876,1.7876,1.7876,1.6957,1.7032,1.7069,1.7171,1.7222,1.7298,1.7337,1.7391,1.7444,1.7539,1.76,1.7645,1.7713,1.7795,1.7864,1.7883,1.7909,1.7907,1.793,1.7901,1.79,1.7898,1.7883,1.7913,1.7913,1.7954,1.7954,1.7954]},{"header":{"parameterUnit":"m.s-1","parameterCategory":1,"la1":30.2991,"la2":30.254,"lo1":-89.0895,"lo2":-89.0444,"dy":0.0017,"dx":0.0017,"nx":28,"ny":28,"refTime":"2024-07-12T03:00:00:Z","depth":0,"parameterNumber":3,"parameterNumberName":"V-component_of_WINDS"},"data":[0,0,0,0,0,0,0,0,0,0,0,0,0,0,0,0,0,0,0,0,0,0,0,0,0,0,0,0,0,0,0,0,0,0,0,0,0,0,0,0,0,0,0,0,0,0,0,0,0,0,0,0,0,0,0,0,0,0,4.5646,4.5645,0,4.5603,4.5603,4.5602,4.5571,4.5571,4.557,4.557,4.5522,4.5521,4.552,0,0,0,0,0,0,0,0,0,0,0,0,0,4.5695,4.5695,4.5646,4.5645,4.5645,4.5604,4.5603,4.5602,4.5571,4.5571,4.557,4.557,4.5523,4.5521,4.552,0,0,0,0,0,0,0,0,0,0,0,0,0,4.5665,4.5694,4.5646,4.5624,4.5622,4.5604,4.5603,4.5602,4.5571,4.5571,4.557,4.557,4.5523,4.5522,4.552,4.5518,0,0,4.5515,4.5515,0,0,0,0,0,0,0,0,4.5667,4.5664,4.5628,4.5626,4.5623,4.5592,4.5603,4.5574,4.5571,4.559,4.557,4.557,4.5546,4.5542,4.5535,4.5516,4.5514,4.5515,4.5514,4.5514,4.5513,0,0,0,0,0,0,0,4.5669,4.5665,4.5629,4.5627,4.5624,4.5615,4.5611,4.5597,4.557,4.5589,4.5586,4.5582,4.5544,4.5537,4.5534,4.5513,4.5515,4.5514,4.5513,4.5512,4.549,4.549,0,0,0,0,0,0,4.5675,4.5667,4.563,4.5628,4.5645,4.5615,4.561,4.5602,4.5571,4.5565,4.5582,4.5581,4.5539,4.5535,4.5532,4.5527,4.5514,4.5512,4.5511,4.549,4.549,4.549,0,0,0,0,0,0,4.5677,4.5672,4.5632,4.5647,4.5641,4.5614,4.5607,4.5602,4.5594,4.5566,4.5561,4.558,4.5539,4.5534,4.5522,4.5525,4.5511,4.551,4.5489,4.549,4.549,4.5518,0,0,0,0,0,0,4.5678,4.5673,4.5673,4.5647,4.564,4.5624,4.5607,4.5601,4.5592,4.559,4.5562,4.5557,4.5538,4.5525,4.5521,4.5523,4.5509,4.5489,4.5489,4.549,4.5517,4.552,4.5522,0,0,0,0,0,4.568,4.5682,4.5673,4.5669,4.564,4.5625,4.5621,4.56,4.5593,4.5592,4.5573,4.5558,4.5526,4.5524,4.5519,4.552,4.5489,4.5489,4.549,4.5516,4.5519,4.5522,0,0,0,0,0,0,4.5708,4.5678,4.5668,4.5662,4.5646,4.562,4.5618,4.5605,4.5589,4.5587,4.5561,4.5555,4.5546,4.5532,4.553,4.5517,4.5505,4.5505,4.5526,4.5529,4.5531,4.5535,4.5508,0,0,0,0,0,4.5713,4.5705,4.5679,4.5676,4.5668,4.5645,4.5637,4.5623,4.5605,4.5597,4.5578,4.556,4.5546,4.5537,4.5522,4.5515,4.5508,4.5513,4.5516,4.5518,4.5518,4.5512,4.5514,4.5493,4.5493,4.5493,0,0,4.5724,4.5707,4.5703,4.5681,4.5667,4.5657,4.5639,4.563,4.5621,4.5595,4.5583,4.5569,4.5546,4.5537,4.5532,4.5525,4.5522,4.5519,4.5521,4.552,4.5513,4.5515,4.5517,4.5493,4.5493,4.5493,0,0,4.5739,4.5726,4.5722,4.5708,4.5688,4.5672,4.5671,4.5646,4.5636,4.5624,4.5604,4.5593,4.5569,4.5554,4.5543,4.5552,4.5537,4.5548,4.5561,4.5555,4.5557,4.5558,4.5561,4.5562,4.5548,4.5548,4.5548,0,4.5755,4.5741,4.5721,4.5712,4.5703,4.568,4.5675,4.5662,4.5638,4.5631,4.5624,4.5594,4.5577,4.5563,4.5565,4.5558,4.5554,4.5551,4.5559,4.556,4.5561,4.5563,4.5564,4.555,4.555,4.5549,4.5549,0,4.576,4.5751,4.575,4.5728,4.5718,4.5711,4.5689,4.5681,4.5668,4.5652,4.5639,4.5619,4.5599,4.5595,4.5581,4.5579,4.5575,4.5564,4.5552,4.5565,4.5566,4.5566,4.5552,4.5551,4.5551,4.5551,0,0,4.5791,4.5759,4.5758,4.5748,4.5724,4.5715,4.5707,4.5689,4.5683,4.5666,4.5657,4.5638,4.5627,4.5615,4.5599,4.5595,4.5602,4.5584,4.5583,4.5587,4.5597,4.5605,4.5606,4.5592,4.5592,4.5592,4.5598,0,4.5801,4.5786,4.5768,4.5759,4.5749,4.5728,4.572,4.5704,4.5689,4.5677,4.566,4.5647,4.5635,4.5627,4.5621,4.5603,4.5603,4.5602,4.5582,4.5582,4.5588,4.5607,4.5615,4.5622,4.5599,4.5599,4.5599,0,4.5811,4.5797,4.5788,4.5764,4.5759,4.5753,4.5735,4.5725,4.5705,4.5695,4.5681,4.5665,4.5653,4.5643,4.5626,4.5625,4.5616,4.5605,4.5605,4.5601,4.559,4.5603,4.5623,4.5624,4.5599,4.5599,4.5599,0,4.5833,4.5812,4.5803,4.5795,4.5768,4.5764,4.5752,4.5732,4.5723,4.5706,4.57,4.5682,4.5672,4.5657,4.5636,4.5631,4.562,4.5609,4.561,4.561,4.5608,4.5608,4.5626,4.5604,4.5604,4.5604,4.5604,0,4.5846,4.584,4.5813,4.5807,4.58,4.5779,4.5772,4.5758,4.5741,4.5731,4.5711,4.5702,4.5675,4.5662,4.5645,4.5632,4.5628,4.5618,4.5613,4.5619,4.562,4.5612,4.5611,4.5604,4.5604,4.5604,4.5604,0,4.5869,4.585,4.5839,4.5815,4.5809,4.5804,4.5782,4.5776,4.576,4.5748,4.5744,4.5719,4.5702,4.568,4.5656,4.5645,4.5634,4.5627,4.5641,4.5639,4.5641,4.5641,4.5654,4.5654,4.5632,4.5632,4.5632,0,4.5878,4.5873,4.5849,4.5842,4.5831,4.582,4.581,4.5789,4.5779,4.5757,4.5752,4.5735,4.572,4.5695,4.5673,4.5655,4.5647,4.5652,4.5644,4.565,4.5646,4.5646,4.5645,4.5654,4.5655,4.5655,4.5655,0,4.5895,4.5887,4.5875,4.5859,4.5849,4.5835,4.5821,4.5815,4.579,4.5781,4.5765,4.5753,4.573,4.5712,4.5691,4.5677,4.5661,4.5658,4.5658,4.5663,4.5671,4.5666,4.5646,4.5658,4.5658,4.5657,4.5657,4.5657,4.5911,4.5906,4.5888,4.5875,4.5862,4.5849,4.5841,4.5825,4.5812,4.5793,4.578,4.5765,4.5744,4.5715,4.5701,4.5687,4.5681,4.568,4.568,4.568,4.5681,4.5674,4.5683,4.5683,4.5683,4.5683,4.5683,0,4.5927,4.5915,4.5903,4.5884,4.5873,4.5862,4.5845,4.5836,4.5823,4.5807,4.5793,4.5774,4.5757,4.5734,4.5715,4.5708,4.5701,4.5704,4.5704,4.57,4.5688,4.5691,4.571,4.571,4.571,4.571,4.571,4.571,4.5934,4.5925,4.5914,4.5897,4.5884,4.5871,4.5862,4.5849,4.5835,4.5816,4.5803,4.5789,4.5769,4.5748,4.5731,4.5725,4.5718,4.5724,4.5715,4.5704,4.5701,4.5699,4.5701,4.5723,4.5723,4.5728,4.5728,4.5728]}]]